timestamp,wind_dir_avg,wind_spd_avg,wind_spd_max_dir,wind_spd_gust,battery_voltage,lat,long
2019-12-20 00:04:01+00:00,350.0,4.73,352.0,5.37,12.57,47.59359,-54.27349
2019-12-20 00:14:01+00:00,358.0,5.11,359.0,6.27,12.57,47.59359,-54.27349
2019-12-20 00:24:01+00:00,350.0,5.0,345.0,5.6,12.57,47.59359,-54.27349
2019-12-20 00:34:01+00:00,353.0,5.05,353.0,6.01,12.57,47.59359,-54.27349
2019-12-20 00:44:01+00:00,350.0,5.69,348.0,6.19,12.57,47.59359,-54.27349
2019-12-20 00:54:01+00:00,354.0,4.9,358.0,5.96,12.57,47.59359,-54.27349
2019-12-20 01:04:01+00:00,349.0,4.64,351.0,5.26,12.57,47.59359,-54.27349
2019-12-20 01:14:01+00:00,353.0,4.73,359.0,5.19,12.49,47.59359,-54.27349
2019-12-20 01:24:01+00:00,356.0,4.21,356.0,5.0,12.49,47.59359,-54.27349
2019-12-20 01:34:01+00:00,356.0,3.83,3.0,4.79,12.49,47.59359,-54.27349
2019-12-20 01:44:01+00:00,354.0,3.71,357.0,4.71,12.49,47.59359,-54.27349
2019-12-20 01:54:01+00:00,343.0,3.56,343.0,4.79,12.49,47.59359,-54.27349
2019-12-20 02:04:01+00:00,334.0,3.78,333.0,4.23,12.49,47.59359,-54.27349
2019-12-20 02:14:01+00:00,327.0,3.69,328.0,4.2,12.49,47.59359,-54.27349
2019-12-20 02:24:01+00:00,327.0,4.08,332.0,4.52,12.49,47.59359,-54.27349
2019-12-20 02:34:01+00:00,341.0,2.95,348.0,3.8,12.49,47.59359,-54.27349
2019-12-20 02:44:01+00:00,355.0,3.24,358.0,3.59,12.49,47.59359,-54.27349
2019-12-20 02:54:01+00:00,341.0,4.61,343.0,5.59,12.49,47.59359,-54.27349
2019-12-20 03:04:01+00:00,332.0,2.84,318.0,3.62,12.49,47.59359,-54.27349
2019-12-20 03:14:01+00:00,307.0,3.0,313.0,3.69,12.41,47.59359,-54.27349
2019-12-20 03:24:01+00:00,313.0,3.64,322.0,5.21,12.41,47.59359,-54.27349
2019-12-20 03:34:01+00:00,308.0,3.65,305.0,4.71,12.41,47.59359,-54.27349
2019-12-20 03:44:01+00:00,305.0,3.71,316.0,4.45,12.41,47.59359,-54.27349
2019-12-20 03:54:01+00:00,314.0,3.79,320.0,4.37,12.41,47.59359,-54.27349
2019-12-20 04:04:01+00:00,308.0,5.04,298.0,6.03,12.41,47.59359,-54.27349
2019-12-20 04:14:01+00:00,309.0,4.98,305.0,5.75,12.41,47.59359,-54.27349
2019-12-20 04:24:01+00:00,302.0,4.62,299.0,5.2,12.41,47.59359,-54.27349
2019-12-20 04:34:01+00:00,303.0,5.17,304.0,6.26,12.41,47.59359,-54.27349
2019-12-20 04:44:01+00:00,318.0,7.3,324.0,8.2,12.41,47.59359,-54.27349
2019-12-20 04:54:01+00:00,309.0,8.29,309.0,9.36,12.41,47.59359,-54.27349
2019-12-20 05:04:01+00:00,304.0,8.6,301.0,10.19,12.41,47.59359,-54.27349
2019-12-20 05:14:01+00:00,308.0,8.6,313.0,10.03,12.41,47.59359,-54.27349
2019-12-20 05:24:01+00:00,303.0,7.61,307.0,8.77,12.41,47.59359,-54.27349
2019-12-20 05:34:01+00:00,305.0,6.47,303.0,7.48,12.41,47.59359,-54.27349
2019-12-20 05:44:01+00:00,311.0,6.99,314.0,8.37,12.41,47.59359,-54.27349
2019-12-20 05:54:01+00:00,307.0,6.79,306.0,7.72,12.41,47.59359,-54.27349
2019-12-20 06:04:01+00:00,306.0,6.97,309.0,8.77,12.41,47.59359,-54.27349
2019-12-20 06:14:01+00:00,308.0,7.07,309.0,8.37,12.41,47.59359,-54.27349
2019-12-20 06:24:01+00:00,310.0,7.44,309.0,8.76,12.41,47.59359,-54.27349
2019-12-20 06:34:01+00:00,307.0,7.04,307.0,8.15,12.41,47.59359,-54.27349
2019-12-20 06:44:01+00:00,306.0,6.56,309.0,7.28,12.41,47.59359,-54.27349
2019-12-20 06:54:01+00:00,309.0,5.33,312.0,6.67,12.41,47.59359,-54.27349
2019-12-20 07:04:01+00:00,311.0,5.54,317.0,6.8,12.41,47.59359,-54.27349
2019-12-20 07:14:01+00:00,317.0,5.54,320.0,6.94,12.33,47.59359,-54.27349
2019-12-20 07:24:01+00:00,319.0,5.04,313.0,5.8,12.33,47.59359,-54.27349
2019-12-20 07:34:01+00:00,316.0,3.67,321.0,4.65,12.33,47.59359,-54.27349
2019-12-20 07:44:01+00:00,311.0,4.58,320.0,5.38,12.33,47.59359,-54.27349
2019-12-20 07:54:01+00:00,310.0,4.14,300.0,5.27,12.33,47.59359,-54.27349
2019-12-20 08:04:01+00:00,317.0,4.54,327.0,6.04,12.33,47.59359,-54.27349
2019-12-20 08:14:01+00:00,317.0,4.62,320.0,5.34,12.33,47.59359,-54.27349
2019-12-20 08:24:01+00:00,308.0,3.7,312.0,4.58,12.33,47.59359,-54.27349
2019-12-20 08:34:01+00:00,317.0,3.85,320.0,4.68,12.33,47.59359,-54.27349
2019-12-20 08:44:01+00:00,308.0,4.6,309.0,5.24,12.33,47.59359,-54.27349
2019-12-20 08:54:01+00:00,292.0,4.03,295.0,4.76,12.33,47.59359,-54.27349
2019-12-20 09:04:01+00:00,303.0,3.91,307.0,4.7,12.33,47.59359,-54.27349
2019-12-20 09:14:01+00:00,301.0,4.95,307.0,5.8,12.33,47.59359,-54.27349
2019-12-20 09:24:01+00:00,314.0,4.37,316.0,5.01,12.33,47.59359,-54.27349
2019-12-20 09:34:01+00:00,321.0,3.97,321.0,4.77,12.33,47.59359,-54.27349
2019-12-20 09:44:01+00:00,309.0,4.38,316.0,5.38,12.33,47.59359,-54.27349
2019-12-20 09:54:01+00:00,300.0,4.35,300.0,5.44,12.33,47.59359,-54.27349
2019-12-20 10:04:01+00:00,320.0,3.62,322.0,4.47,12.33,47.59359,-54.27349
2019-12-20 10:14:01+00:00,343.0,3.06,353.0,4.12,12.33,47.59359,-54.27349
2019-12-20 10:24:01+00:00,327.0,3.36,321.0,3.95,12.33,47.59359,-54.27349
2019-12-20 10:34:01+00:00,335.0,4.39,344.0,6.39,12.33,47.59359,-54.27349
2019-12-20 10:44:01+00:00,2.0,3.38,345.0,3.99,12.33,47.59359,-54.27349
2019-12-20 10:54:01+00:00,342.0,3.82,325.0,4.95,12.33,47.59359,-54.27349
2019-12-20 11:04:01+00:00,335.0,4.09,329.0,5.75,12.33,47.59359,-54.27349
2019-12-20 11:14:01+00:00,313.0,4.32,309.0,5.28,12.33,47.59359,-54.27349
2019-12-20 11:24:01+00:00,308.0,4.13,307.0,4.97,12.33,47.59359,-54.27349
2019-12-20 11:34:01+00:00,324.0,3.91,324.0,4.45,12.33,47.59359,-54.27349
2019-12-20 11:44:01+00:00,328.0,4.54,332.0,5.05,12.33,47.59359,-54.27349
2019-12-20 11:54:01+00:00,299.0,4.97,296.0,5.67,12.33,47.59359,-54.27349
2019-12-20 12:04:01+00:00,306.0,5.08,311.0,6.02,12.33,47.59359,-54.27349
2019-12-20 12:14:01+00:00,309.0,6.21,317.0,7.54,12.65,47.59359,-54.27349
2019-12-20 12:24:01+00:00,300.0,6.53,297.0,7.45,12.65,47.59359,-54.27349
2019-12-20 12:34:01+00:00,302.0,5.81,308.0,6.61,12.65,47.59359,-54.27349
2019-12-20 12:44:01+00:00,305.0,6.49,315.0,8.31,12.65,47.59359,-54.27349
2019-12-20 12:54:01+00:00,307.0,7.32,308.0,8.44,12.65,47.59359,-54.27349
2019-12-20 13:04:01+00:00,316.0,7.81,318.0,8.85,12.65,47.59359,-54.27349
2019-12-20 13:14:01+00:00,312.0,7.18,309.0,7.92,14.32,47.59359,-54.27349
2019-12-20 13:24:01+00:00,308.0,7.66,313.0,8.6,14.32,47.59359,-54.27349
2019-12-20 13:34:01+00:00,317.0,8.22,320.0,9.47,14.32,47.59359,-54.27349
2019-12-20 13:44:01+00:00,306.0,6.83,316.0,8.31,14.32,47.59359,-54.27349
2019-12-20 13:54:01+00:00,304.0,6.73,303.0,7.72,14.32,47.59359,-54.27349
2019-12-20 14:04:01+00:00,317.0,6.65,323.0,8.43,14.32,47.59359,-54.27349
2019-12-20 14:14:01+00:00,321.0,6.16,320.0,7.33,13.68,47.59359,-54.27349
2019-12-20 14:24:01+00:00,313.0,5.15,313.0,7.01,13.68,47.59359,-54.27349
2019-12-20 14:34:01+00:00,321.0,4.46,320.0,5.2,13.68,47.59359,-54.27349
2019-12-20 14:44:01+00:00,309.0,4.13,305.0,4.88,13.68,47.59359,-54.27349
2019-12-20 14:54:01+00:00,301.0,5.12,298.0,6.2,13.68,47.59359,-54.27349
2019-12-20 15:04:01+00:00,314.0,4.08,310.0,4.94,13.68,47.59359,-54.27349
2019-12-20 15:14:01+00:00,314.0,4.37,312.0,5.35,14.16,47.59359,-54.27349
2019-12-20 15:24:01+00:00,325.0,3.19,326.0,4.23,14.16,47.59359,-54.27349
2019-12-20 15:34:01+00:00,335.0,3.98,340.0,5.23,14.16,47.59359,-54.27349
2019-12-20 15:44:01+00:00,334.0,4.54,340.0,6.59,14.16,47.59359,-54.27349
2019-12-20 15:54:01+00:00,333.0,6.57,333.0,7.52,14.16,47.59359,-54.27349
2019-12-20 16:04:01+00:00,325.0,6.02,324.0,6.87,14.16,47.59359,-54.27349
2019-12-20 16:14:01+00:00,330.0,6.24,333.0,7.37,13.76,47.59359,-54.27349
2019-12-20 16:24:01+00:00,317.0,6.64,318.0,7.59,13.76,47.59359,-54.27349
2019-12-20 16:34:01+00:00,312.0,6.85,314.0,8.12,13.76,47.59359,-54.27349
2019-12-20 16:44:01+00:00,330.0,5.6,329.0,6.79,13.76,47.59359,-54.27349
2019-12-20 16:54:01+00:00,315.0,5.0,322.0,6.39,13.76,47.59359,-54.27349
2019-12-20 17:04:01+00:00,303.0,5.25,305.0,6.15,13.76,47.59359,-54.27349
2019-12-20 17:14:01+00:00,310.0,5.02,311.0,5.88,13.68,47.59359,-54.27349
2019-12-20 17:24:01+00:00,316.0,5.28,314.0,5.86,13.68,47.59359,-54.27349
2019-12-20 17:34:01+00:00,318.0,6.8,320.0,8.26,13.68,47.59359,-54.27349
2019-12-20 17:44:01+00:00,317.0,4.76,306.0,5.95,13.68,47.59359,-54.27349
2019-12-20 17:54:01+00:00,312.0,7.14,305.0,8.47,13.68,47.59359,-54.27349
2019-12-20 18:04:01+00:00,313.0,6.09,313.0,7.17,13.68,47.59359,-54.27349
2019-12-20 18:14:01+00:00,309.0,6.99,309.0,8.04,13.29,47.59359,-54.27349
2019-12-20 18:24:01+00:00,291.0,6.44,290.0,7.45,13.29,47.59359,-54.27349
2019-12-20 18:34:01+00:00,305.0,6.13,303.0,7.27,13.29,47.59359,-54.27349
2019-12-20 18:44:01+00:00,318.0,7.89,322.0,9.31,13.29,47.59359,-54.27349
2019-12-20 18:54:01+00:00,314.0,6.13,315.0,7.5,13.29,47.59359,-54.27349
2019-12-20 19:04:01+00:00,320.0,7.89,323.0,9.08,13.29,47.59359,-54.27349
2019-12-20 19:14:01+00:00,324.0,7.47,323.0,8.48,13.05,47.59359,-54.27349
2019-12-20 19:24:01+00:00,318.0,8.17,317.0,10.82,13.05,47.59359,-54.27349
2019-12-20 19:34:01+00:00,316.0,7.72,314.0,9.59,13.05,47.59359,-54.27349
2019-12-20 19:44:01+00:00,321.0,6.21,326.0,8.02,13.05,47.59359,-54.27349
2019-12-20 19:54:01+00:00,315.0,8.11,318.0,10.23,13.05,47.59359,-54.27349
2019-12-20 20:04:01+00:00,313.0,7.48,307.0,8.96,13.05,47.59359,-54.27349
2019-12-20 20:14:01+00:00,328.0,9.04,326.0,12.31,12.73,47.59359,-54.27349
2019-12-20 20:24:01+00:00,338.0,9.59,340.0,11.4,12.73,47.59359,-54.27349
2019-12-20 20:34:01+00:00,321.0,7.79,330.0,9.72,12.73,47.59359,-54.27349
2019-12-20 20:44:01+00:00,333.0,7.58,336.0,10.1,12.73,47.59359,-54.27349
2019-12-20 20:54:01+00:00,319.0,9.55,313.0,10.89,12.73,47.59359,-54.27349
2019-12-20 21:04:01+00:00,314.0,8.01,316.0,8.9,12.73,47.59359,-54.27349
2019-12-20 21:14:01+00:00,312.0,7.41,314.0,9.41,12.65,47.59359,-54.27349
2019-12-20 21:24:01+00:00,313.0,7.67,322.0,9.64,12.65,47.59359,-54.27349
2019-12-20 21:34:01+00:00,307.0,8.1,318.0,9.67,12.65,47.59359,-54.27349
2019-12-20 21:44:01+00:00,321.0,3.58,326.0,4.82,12.65,47.59359,-54.27349
2019-12-20 21:54:01+00:00,335.0,5.37,327.0,6.71,12.65,47.59359,-54.27349
2019-12-20 22:04:01+00:00,339.0,8.61,347.0,10.07,12.65,47.59359,-54.27349
2019-12-20 22:14:01+00:00,331.0,10.95,329.0,12.04,12.65,47.59359,-54.27349
2019-12-20 22:24:01+00:00,340.0,10.94,335.0,13.15,12.65,47.59359,-54.27349
2019-12-20 22:34:01+00:00,344.0,10.11,350.0,11.65,12.65,47.59359,-54.27349
2019-12-20 22:44:01+00:00,348.0,10.62,353.0,12.07,12.65,47.59359,-54.27349
2019-12-20 22:54:01+00:00,341.0,10.29,344.0,11.89,12.65,47.59359,-54.27349
2019-12-20 23:04:01+00:00,346.0,9.45,346.0,12.33,12.65,47.59359,-54.27349
2019-12-20 23:14:01+00:00,349.0,10.56,350.0,12.02,12.65,47.59359,-54.27349
2019-12-20 23:24:01+00:00,353.0,8.46,354.0,9.82,12.65,47.59359,-54.27349
2019-12-20 23:34:01+00:00,357.0,9.13,0.0,10.38,12.65,47.59359,-54.27349
2019-12-20 23:44:01+00:00,355.0,8.79,4.0,10.47,12.65,47.59359,-54.27349
2019-12-20 23:54:01+00:00,353.0,7.65,4.0,9.3,12.65,47.59359,-54.27349
